Time,TemperatureF,DewpointF,PressureIn,WindDirection,WindDirectionDegrees,WindSpeedMPH,WindSpeedGustMPH,Humidity,HourlyPrecipIn,Conditions,Clouds,dailyrainin,SoftwareType,DateUTC
2013-04-11 00:03:00,39.0,37.0,30.01,SSW,196,0.0,0.0,92,0.00,,,0.57,,2013-04-11 04:03:00,
2013-04-11 00:13:00,38.0,36.0,30.00,SSW,196,0.0,0.0,92,0.00,,,0.57,,2013-04-11 04:13:00,
2013-04-11 00:22:00,38.0,36.0,30.00,SSW,196,0.0,0.0,92,0.00,,,0.57,,2013-04-11 04:22:00,
2013-04-11 00:33:00,38.0,36.0,29.99,SSW,196,0.0,0.0,92,0.00,,,0.53,,2013-04-11 04:33:00,
2013-04-11 00:43:00,38.0,36.0,29.99,SSW,196,0.0,0.0,92,0.00,,,0.53,,2013-04-11 04:43:00,
2013-04-11 00:53:00,38.0,36.0,29.99,SSW,196,0.0,1.0,92,0.00,,,0.53,,2013-04-11 04:53:00,
2013-04-11 01:02:00,38.0,36.0,29.97,SSW,196,0.0,0.0,92,0.00,,,0.53,,2013-04-11 05:02:00,
2013-04-11 01:13:00,38.0,36.0,29.97,SSW,196,0.0,0.0,92,0.00,,,0.53,,2013-04-11 05:13:00,
2013-04-11 01:22:00,38.0,36.0,29.98,SSW,196,0.0,0.0,92,0.00,,,0.53,,2013-04-11 05:22:00,
2013-04-11 01:32:00,38.0,36.0,30.01,SSW,208,1.0,3.0,92,0.00,,,0.53,,2013-04-11 05:32:00,
2013-04-11 01:42:00,38.0,36.0,30.01,SSW,208,1.0,3.0,92,0.00,,,0.53,,2013-04-11 05:42:00,
2013-04-11 01:52:00,38.0,36.0,29.98,West,273,0.0,2.0,92,0.00,,,0.53,,2013-04-11 05:52:00,
2013-04-11 02:02:00,38.0,36.0,29.99,West,273,0.0,1.0,92,0.00,,,0.53,,2013-04-11 06:02:00,
2013-04-11 02:12:00,38.0,36.0,29.99,West,273,0.0,1.0,92,0.00,,,0.53,,2013-04-11 06:12:00,
2013-04-11 02:22:00,38.0,36.0,29.96,West,273,0.0,0.0,92,0.00,,,0.53,,2013-04-11 06:22:00,
2013-04-11 02:32:00,38.0,36.0,29.98,West,273,0.0,1.0,92,0.00,,,0.48,,2013-04-11 06:32:00,
2013-04-11 02:42:00,38.0,36.0,29.98,West,273,0.0,1.0,92,0.00,,,0.48,,2013-04-11 06:42:00,
2013-04-11 02:52:00,38.0,36.0,29.99,NW,309,0.0,3.0,91,0.00,,,0.48,,2013-04-11 06:52:00,
2013-04-11 03:02:00,38.0,36.0,29.99,NW,309,0.0,2.0,91,0.00,,,0.48,,2013-04-11 07:02:00,
2013-04-11 03:12:00,38.0,36.0,29.99,NW,309,0.0,2.0,91,0.00,,,0.48,,2013-04-11 07:12:00,
2013-04-11 03:22:00,38.0,36.0,30.00,NW,313,0.0,3.0,91,0.00,,,0.48,,2013-04-11 07:22:00,
2013-04-11 03:32:00,38.0,36.0,30.01,NW,313,0.0,1.0,91,0.00,,,0.48,,2013-04-11 07:32:00,
2013-04-11 03:43:00,38.0,36.0,30.01,NW,313,0.0,1.0,91,0.00,,,0.48,,2013-04-11 07:43:00,
2013-04-11 03:52:00,38.0,36.0,30.02,NW,320,0.0,2.0,91,0.00,,,0.48,,2013-04-11 07:52:00,
2013-04-11 04:03:00,37.0,35.0,30.02,NW,319,0.0,2.0,91,0.00,,,0.48,,2013-04-11 08:03:00,
2013-04-11 04:12:00,37.0,35.0,30.02,NW,319,0.0,2.0,91,0.00,,,0.48,,2013-04-11 08:12:00,
2013-04-11 04:22:00,37.0,34.0,30.03,NNW,327,1.0,3.0,90,0.00,,,0.48,,2013-04-11 08:22:00,
2013-04-11 04:32:00,37.0,34.0,30.04,NNW,333,0.0,3.0,90,0.00,,,0.46,,2013-04-11 08:32:00,
2013-04-11 04:42:00,37.0,34.0,30.04,NNW,333,0.0,3.0,90,0.00,,,0.46,,2013-04-11 08:42:00,
2013-04-11 04:52:00,37.0,34.0,30.04,NE,48,2.0,3.0,88,0.00,,,0.46,,2013-04-11 08:52:00,
2013-04-11 05:02:00,36.0,33.0,30.05,SSE,155,1.0,6.0,87,0.01,,,0.47,,2013-04-11 09:02:00,
2013-04-11 05:12:00,36.0,33.0,30.05,SSE,155,1.0,6.0,87,0.01,,,0.47,,2013-04-11 09:12:00,
2013-04-11 05:22:00,36.0,32.0,30.04,SE,138,1.0,10.0,84,0.01,,,0.47,,2013-04-11 09:22:00,
2013-04-11 05:33:00,36.0,31.0,30.03,ESE,111,2.0,7.0,83,0.01,,,0.47,,2013-04-11 09:33:00,
2013-04-11 05:43:00,36.0,31.0,30.03,ESE,111,2.0,7.0,83,0.01,,,0.47,,2013-04-11 09:43:00,
2013-04-11 05:53:00,36.0,31.0,30.03,SE,134,2.0,7.0,81,0.01,,,0.47,,2013-04-11 09:53:00,
2013-04-11 06:02:00,36.0,31.0,30.04,SE,145,0.0,7.0,81,0.00,,,0.47,,2013-04-11 10:02:00,
2013-04-11 06:12:00,35.0,29.0,30.03,SE,134,0.0,4.0,79,0.00,,,0.47,,2013-04-11 10:12:00,
2013-04-11 06:23:00,35.0,29.0,30.03,SE,134,0.0,4.0,79,0.00,,,0.47,,2013-04-11 10:23:00,
2013-04-11 06:32:00,35.0,29.0,30.03,East,86,2.0,7.0,78,0.00,,,0.47,,2013-04-11 10:32:00,
2013-04-11 06:42:00,35.0,29.0,30.03,East,86,2.0,7.0,78,0.00,,,0.47,,2013-04-11 10:42:00,
2013-04-11 06:52:00,35.0,28.0,30.03,SSE,167,0.0,9.0,75,0.00,,,0.47,,2013-04-11 10:52:00,
2013-04-11 07:03:00,35.0,28.0,30.03,SSE,167,0.0,9.0,75,0.00,,,0.47,,2013-04-11 11:03:00,
2013-04-11 07:12:00,35.0,28.0,30.03,East,87,2.0,10.0,75,0.00,,,0.47,,2013-04-11 11:12:00,
2013-04-11 07:23:00,35.0,28.0,30.03,SE,144,1.0,10.0,74,0.00,,,0.47,,2013-04-11 11:23:00,
2013-04-11 07:32:00,35.0,28.0,30.04,SE,136,2.0,6.0,75,0.00,,,0.47,,2013-04-11 11:32:00,
2013-04-11 07:43:00,35.0,27.0,30.06,SE,130,2.0,9.0,73,0.00,,,0.47,,2013-04-11 11:43:00,
2013-04-11 07:53:00,35.0,27.0,30.06,SE,130,2.0,9.0,73,0.00,,,0.47,,2013-04-11 11:53:00,
2013-04-11 08:02:00,35.0,28.0,30.06,ESE,109,0.0,8.0,74,0.00,,,0.47,,2013-04-11 12:02:00,
2013-04-11 08:12:00,35.0,28.0,30.06,ESE,109,0.0,8.0,74,0.00,,,0.47,,2013-04-11 12:12:00,
2013-04-11 08:23:00,35.0,28.0,30.05,SE,134,1.0,7.0,75,0.00,,,0.47,,2013-04-11 12:23:00,
2013-04-11 08:32:00,34.0,28.0,30.04,East,82,2.0,6.0,77,0.00,,,0.47,,2013-04-11 12:32:00,
2013-04-11 08:43:00,34.0,28.0,30.04,East,82,2.0,6.0,77,0.00,,,0.47,,2013-04-11 12:43:00,
2013-04-11 08:52:00,33.0,27.0,30.03,SE,135,1.0,9.0,79,0.02,,,0.49,,2013-04-11 12:52:00,
2013-04-11 09:02:00,33.0,28.0,30.07,East,95,1.0,6.0,81,0.04,,,0.51,,2013-04-11 13:02:00,
2013-04-11 09:13:00,33.0,28.0,30.09,North,349,0.0,5.0,82,0.04,,,0.51,,2013-04-11 13:13:00,
2013-04-11 09:23:00,33.0,28.0,30.09,North,349,0.0,5.0,82,0.04,,,0.51,,2013-04-11 13:23:00,
2013-04-11 09:32:00,33.0,28.0,30.08,ESE,109,1.0,6.0,83,0.07,,,0.54,,2013-04-11 13:32:00,
2013-04-11 09:43:00,33.0,28.0,30.08,ESE,109,1.0,6.0,83,0.07,,,0.54,,2013-04-11 13:43:00,
2013-04-11 09:54:00,33.0,29.0,30.09,ESE,113,1.0,7.0,84,0.07,,,0.56,,2013-04-11 13:54:00,
2013-04-11 10:03:00,33.0,29.0,30.08,East,101,2.0,4.0,84,0.05,,,0.56,,2013-04-11 14:03:00,
2013-04-11 10:12:00,33.0,29.0,30.14,NNE,13,0.0,4.0,85,0.07,,,0.58,,2013-04-11 14:12:00,
2013-04-11 10:22:00,33.0,29.0,30.14,NNE,13,0.0,4.0,85,0.07,,,0.58,,2013-04-11 14:22:00,
2013-04-11 10:32:00,33.0,29.0,30.12,SSE,167,0.0,5.0,85,0.05,,,0.59,,2013-04-11 14:32:00,
2013-04-11 10:42:00,33.0,29.0,30.12,SSE,167,0.0,5.0,85,0.05,,,0.59,,2013-04-11 14:42:00,
2013-04-11 10:53:00,32.0,28.0,30.13,SE,144,1.0,9.0,86,0.05,,,0.61,,2013-04-11 14:53:00,
2013-04-11 11:02:00,32.0,28.0,30.11,East,94,1.0,5.0,86,0.07,,,0.63,,2013-04-11 15:02:00,
2013-04-11 11:12:00,32.0,29.0,30.15,SE,137,0.0,6.0,87,0.08,,,0.66,,2013-04-11 15:12:00,
2013-04-11 11:22:00,32.0,29.0,30.15,SE,137,0.0,6.0,87,0.08,,,0.66,,2013-04-11 15:22:00,
2013-04-11 11:32:00,32.0,29.0,30.15,SE,137,0.0,2.0,87,0.09,,,0.68,,2013-04-11 15:32:00,
2013-04-11 11:43:00,32.0,29.0,30.15,SE,137,0.0,2.0,87,0.09,,,0.68,,2013-04-11 15:43:00,
2013-04-11 11:53:00,32.0,29.0,30.14,ESE,110,0.0,5.0,87,0.10,,,0.71,,2013-04-11 15:53:00,
2013-04-11 12:02:00,32.0,29.0,30.13,SE,124,1.0,6.0,88,0.09,,,0.72,,2013-04-11 16:02:00,
2013-04-11 12:13:00,32.0,29.0,30.13,SE,124,1.0,6.0,88,0.09,,,0.72,,2013-04-11 16:13:00,
2013-04-11 12:23:00,33.0,30.0,30.09,SE,129,2.0,13.0,88,0.07,,,0.73,,2013-04-11 16:23:00,
2013-04-11 12:32:00,33.0,30.0,30.12,East,82,2.0,10.0,88,0.05,,,0.56,,2013-04-11 16:32:00,
2013-04-11 12:42:00,33.0,30.0,30.11,ESE,111,2.0,11.0,88,0.02,,,0.56,,2013-04-11 16:42:00,
2013-04-11 12:53:00,33.0,30.0,30.11,ESE,111,2.0,11.0,88,0.02,,,0.56,,2013-04-11 16:53:00,
2013-04-11 13:02:00,33.0,30.0,30.12,SE,130,1.0,4.0,88,0.01,,,0.56,,2013-04-11 17:02:00,
2013-04-11 13:13:00,33.0,30.0,30.12,SE,130,1.0,4.0,88,0.01,,,0.56,,2013-04-11 17:13:00,
2013-04-11 13:23:00,33.0,30.0,30.11,ESE,105,0.0,5.0,88,0.00,,,0.56,,2013-04-11 17:23:00,
2013-04-11 13:33:00,33.0,30.0,30.10,SSE,149,1.0,6.0,88,0.00,,,0.55,,2013-04-11 17:33:00,
2013-04-11 13:43:00,33.0,30.0,30.10,SSE,149,1.0,6.0,88,0.00,,,0.55,,2013-04-11 17:43:00,
2013-04-11 13:53:00,32.0,29.0,30.10,ESE,120,0.0,10.0,88,0.00,,,0.55,,2013-04-11 17:53:00,
2013-04-11 14:03:00,32.0,29.0,30.11,East,96,2.0,13.0,88,0.01,,,0.56,,2013-04-11 18:03:00,
2013-04-11 14:13:00,32.0,29.0,30.11,East,96,2.0,13.0,88,0.01,,,0.56,,2013-04-11 18:13:00,
2013-04-11 14:23:00,32.0,29.0,30.10,SE,125,2.0,9.0,88,0.01,,,0.56,,2013-04-11 18:23:00,
2013-04-11 14:33:00,32.0,29.0,30.11,ESE,104,4.0,6.0,88,0.01,,,0.56,,2013-04-11 18:33:00,
2013-04-11 14:42:00,32.0,29.0,30.11,ESE,104,4.0,6.0,88,0.01,,,0.56,,2013-04-11 18:42:00,
2013-04-11 14:53:00,32.0,29.0,30.09,SE,138,2.0,6.0,89,0.01,,,0.56,,2013-04-11 18:53:00,
2013-04-11 15:03:00,33.0,30.0,30.08,SSE,163,0.0,7.0,89,0.00,,,0.56,,2013-04-11 19:03:00,
2013-04-11 15:14:00,33.0,30.0,30.08,SSE,163,0.0,7.0,89,0.00,,,0.56,,2013-04-11 19:14:00,
2013-04-11 15:22:00,32.0,29.0,30.09,SE,144,1.0,6.0,89,0.01,,,0.57,,2013-04-11 19:22:00,
2013-04-11 15:32:00,32.0,29.0,30.08,SSE,159,0.0,6.0,89,0.01,,,0.56,,2013-04-11 19:32:00,
2013-04-11 15:43:00,32.0,29.0,30.08,SSE,159,0.0,6.0,89,0.01,,,0.56,,2013-04-11 19:43:00,
2013-04-11 15:53:00,33.0,30.0,30.09,East,101,0.0,5.0,89,0.01,,,0.56,,2013-04-11 19:53:00,
2013-04-11 16:02:00,33.0,30.0,30.09,ESE,121,0.0,7.0,89,0.01,,,0.56,,2013-04-11 20:02:00,
2013-04-11 16:13:00,33.0,30.0,30.09,ESE,121,0.0,7.0,89,0.01,,,0.56,,2013-04-11 20:13:00,
2013-04-11 16:22:00,33.0,30.0,30.08,ESE,122,2.0,6.0,89,0.00,,,0.56,,2013-04-11 20:22:00,
2013-04-11 16:33:00,33.0,30.0,30.09,East,80,1.0,5.0,90,0.00,,,0.50,,2013-04-11 20:33:00,
2013-04-11 16:42:00,33.0,30.0,30.09,East,80,1.0,5.0,90,0.00,,,0.50,,2013-04-11 20:42:00,
2013-04-11 16:53:00,32.0,29.0,30.09,ESE,121,1.0,5.0,90,0.00,,,0.50,,2013-04-11 20:53:00,
2013-04-11 17:03:00,32.0,29.0,30.09,ESE,115,4.0,12.0,90,0.00,,,0.50,,2013-04-11 21:03:00,
2013-04-11 17:12:00,32.0,29.0,30.09,ESE,115,4.0,12.0,90,0.00,,,0.50,,2013-04-11 21:12:00,
2013-04-11 17:22:00,32.0,29.0,30.07,East,94,0.0,6.0,90,0.00,,,0.50,,2013-04-11 21:22:00,
2013-04-11 17:33:00,32.0,29.0,30.07,SE,129,2.0,4.0,90,0.00,,,0.31,,2013-04-11 21:33:00,
2013-04-11 17:42:00,32.0,29.0,30.07,SE,129,2.0,4.0,90,0.00,,,0.31,,2013-04-11 21:42:00,
2013-04-11 17:54:00,32.0,29.0,30.07,East,90,0.0,5.0,90,0.01,,,0.32,,2013-04-11 21:54:00,
2013-04-11 18:03:00,32.0,29.0,30.06,South,169,4.0,10.0,90,0.01,,,0.32,,2013-04-11 22:03:00,
2013-04-11 18:13:00,32.0,29.0,30.06,South,169,4.0,10.0,90,0.01,,,0.32,,2013-04-11 22:13:00,
2013-04-11 18:23:00,32.0,29.0,30.07,East,99,0.0,8.0,90,0.01,,,0.32,,2013-04-11 22:23:00,
2013-04-11 18:33:00,32.0,29.0,30.07,ESE,108,4.0,7.0,90,0.02,,,0.33,,2013-04-11 22:33:00,
2013-04-11 18:44:00,32.0,29.0,30.07,ESE,108,4.0,7.0,90,0.02,,,0.33,,2013-04-11 22:44:00,
2013-04-11 18:53:00,32.0,29.0,30.07,East,95,1.0,9.0,90,0.01,,,0.33,,2013-04-11 22:53:00,
2013-04-11 19:03:00,32.0,29.0,30.06,ESE,104,2.0,6.0,90,0.01,,,0.33,,2013-04-11 23:03:00,
2013-04-11 19:13:00,32.0,29.0,30.06,ESE,104,2.0,6.0,90,0.01,,,0.33,,2013-04-11 23:13:00,
2013-04-11 19:23:00,32.0,30.0,30.03,South,175,3.0,8.0,91,0.01,,,0.33,,2013-04-11 23:23:00,
2013-04-11 19:32:00,32.0,30.0,30.03,ESE,110,4.0,10.0,91,0.00,,,0.33,,2013-04-11 23:32:00,
2013-04-11 19:53:00,32.0,29.0,30.03,ESE,111,2.0,8.0,90,0.00,,,0.33,,2013-04-11 23:53:00,
2013-04-11 20:02:00,32.0,29.0,30.05,East,99,3.0,11.0,90,0.00,,,0.33,,2013-04-12 00:02:00,
2013-04-11 20:12:00,32.0,29.0,30.05,East,99,3.0,11.0,90,0.00,,,0.33,,2013-04-12 00:12:00,
2013-04-11 20:22:00,32.0,29.0,30.05,ESE,105,1.0,6.0,90,0.00,,,0.33,,2013-04-12 00:22:00,
2013-04-11 20:32:00,32.0,29.0,30.06,ESE,111,1.0,4.0,90,0.00,,,0.31,,2013-04-12 00:32:00,
2013-04-11 20:42:00,32.0,29.0,30.06,ESE,111,1.0,4.0,90,0.00,,,0.31,,2013-04-12 00:42:00,
2013-04-11 20:53:00,33.0,30.0,30.04,SE,133,1.0,5.0,90,0.00,,,0.31,,2013-04-12 00:53:00,
2013-04-11 21:02:00,33.0,30.0,30.04,SSE,148,2.0,5.0,90,0.00,,,0.31,,2013-04-12 01:02:00,
2013-04-11 21:12:00,33.0,30.0,30.04,SSE,148,2.0,5.0,90,0.00,,,0.31,,2013-04-12 01:12:00,
2013-04-11 21:22:00,33.0,30.0,30.04,South,176,3.0,9.0,90,0.00,,,0.31,,2013-04-12 01:22:00,
2013-04-11 21:32:00,33.0,30.0,30.04,ESE,118,1.0,6.0,90,0.00,,,0.31,,2013-04-12 01:32:00,
2013-04-11 21:42:00,33.0,30.0,30.04,ESE,118,1.0,6.0,90,0.00,,,0.31,,2013-04-12 01:42:00,
2013-04-11 21:52:00,33.0,30.0,30.04,SSE,155,0.0,7.0,90,0.00,,,0.31,,2013-04-12 01:52:00,
2013-04-11 22:03:00,33.0,30.0,30.04,SSE,148,0.0,9.0,90,0.00,,,0.31,,2013-04-12 02:03:00,
2013-04-11 22:12:00,33.0,30.0,30.04,SSE,148,0.0,9.0,90,0.00,,,0.31,,2013-04-12 02:12:00,
2013-04-11 22:22:00,33.0,30.0,30.03,SSE,150,1.0,10.0,90,0.00,,,0.31,,2013-04-12 02:22:00,
2013-04-11 22:32:00,33.0,30.0,30.03,SE,143,0.0,5.0,90,0.00,,,0.31,,2013-04-12 02:32:00,
2013-04-11 22:42:00,33.0,30.0,30.03,SE,143,0.0,5.0,90,0.00,,,0.31,,2013-04-12 02:42:00,
2013-04-11 22:52:00,33.0,30.0,30.01,SE,137,1.0,4.0,90,0.00,,,0.31,,2013-04-12 02:52:00,
2013-04-11 23:02:00,33.0,30.0,30.00,South,175,0.0,5.0,90,0.00,,,0.31,,2013-04-12 03:02:00,
2013-04-11 23:12:00,33.0,30.0,30.00,South,175,0.0,5.0,90,0.00,,,0.31,,2013-04-12 03:12:00,
2013-04-11 23:22:00,34.0,31.0,29.99,East,101,0.0,4.0,90,0.00,,,0.31,,2013-04-12 03:22:00,
2013-04-11 23:33:00,34.0,31.0,30.00,ESE,102,2.0,10.0,90,0.00,,,0.31,,2013-04-12 03:33:00,
2013-04-11 23:43:00,34.0,31.0,30.00,ESE,102,2.0,10.0,90,0.00,,,0.31,,2013-04-12 03:43:00,
2013-04-11 23:53:00,34.0,31.0,29.98,SSE,148,2.0,6.0,90,0.00,,,0.31,,2013-04-12 03:53:00,